Bookmark and Share
Track history (hours):
 

Legend

More information available from US FCC via Universal Licensing System and Coast Guard Vessel Documentation Center.

Last reported at 2014-Apr-17 11:28 UTC. Time now 2014-Apr-20 05:59 UTC.
Position N 25°04' W 080°11'.

Length 213 m; draft 11.2 m.

Type: Towing. MMSI: 366709000.

NotesDate/timePositionNaut miles runAvg speedWind from/ knotsBaromVisibWave heightAir tempDewpointWater temp
2014-Apr-17 11:28N 25°04' W 080°11'25 8.6
2014-Apr-17 08:33N 25°27' W 080°01'1010.0
2014-Apr-17 07:33N 25°37' W 080°01'1111.4
2014-Apr-17 06:33N 25°49' W 080°01'1211.6
2014-Apr-17 05:33N 26°00' W 080°02'7 7.4
2014-Apr-17 04:33N 26°06' W 080°07'0 0.0
2014-Apr-17 03:22N 26°06' W 080°07'0 0.0
2014-Apr-17 02:25N 26°06' W 080°07'0 0.0
2014-Apr-17 01:25N 26°06' W 080°07'0 0.0
2014-Apr-17 00:28N 26°06' W 080°07'0 0.0
2014-Apr-16 23:28N 26°06' W 080°07'0 0.0
2014-Apr-16 22:28N 26°06' W 080°07'0 0.0
2014-Apr-16 21:31N 26°06' W 080°07'0 0.0
2014-Apr-16 20:31N 26°06' W 080°07'0 0.0
2014-Apr-16 19:31N 26°06' W 080°07'0 0.0
2014-Apr-16 18:31N 26°06' W 080°07'0 0.0
2014-Apr-16 17:28N 26°06' W 080°07'0 0.0
2014-Apr-16 16:31N 26°06' W 080°07'0 0.0
2014-Apr-16 15:31N 26°06' W 080°07'0 0.0
2014-Apr-16 14:22N 26°06' W 080°07'0 0.0
2014-Apr-16 13:22N 26°06' W 080°07'0 0.0
2014-Apr-16 12:25N 26°06' W 080°07'0 0.0
2014-Apr-16 11:25N 26°06' W 080°07'0 0.0
2014-Apr-16 10:25N 26°06' W 080°07'0 0.0
2014-Apr-16 09:28N 26°06' W 080°07'0 0.0
2014-Apr-16 08:28N 26°06' W 080°07'0 0.0
2014-Apr-16 07:28N 26°06' W 080°07'0 0.0
2014-Apr-16 06:31N 26°06' W 080°07'0 0.0
2014-Apr-16 05:31N 26°06' W 080°07'0 0.0
2014-Apr-16 04:31N 26°06' W 080°07'2 1.7
2014-Apr-16 03:33N 26°06' W 080°06'9 9.0
2014-Apr-16 02:33N 25°58' W 079°60'1615.6
2014-Apr-16 01:33N 25°43' W 079°59'  
2014-Apr-13 09:33N 29°56' W 090°21'1212.3
2014-Apr-13 08:33N 30°03' W 090°33'2 2.3
2014-Apr-13 07:33N 30°03' W 090°36'0 0.0
2014-Apr-13 06:33N 30°03' W 090°36'0 0.0
2014-Apr-13 05:33N 30°03' W 090°36'0 0.0
2014-Apr-13 04:33N 30°03' W 090°36'0 0.0
2014-Apr-13 03:33N 30°03' W 090°36'0 0.0
2014-Apr-13 02:33N 30°03' W 090°36'0 0.0
2014-Apr-13 01:33N 30°03' W 090°36'0 0.0
2014-Apr-13 00:33N 30°03' W 090°36'0 0.0
2014-Apr-12 23:33N 30°03' W 090°36'0 0.0
2014-Apr-12 22:33N 30°03' W 090°36'0 0.0
2014-Apr-12 21:33N 30°03' W 090°36'0 0.0
2014-Apr-12 20:33N 30°03' W 090°36'0 0.0
2014-Apr-12 19:33N 30°03' W 090°36'0 0.0
2014-Apr-12 18:33N 30°03' W 090°36'0 0.0
2014-Apr-12 17:30N 30°03' W 090°36'0 0.0
2014-Apr-12 16:33N 30°03' W 090°36'0 0.0
2014-Apr-12 15:33N 30°03' W 090°36'0 0.0
2014-Apr-12 14:30N 30°03' W 090°36'0 0.0
2014-Apr-12 13:33N 30°03' W 090°36'0 0.0
2014-Apr-12 12:33N 30°03' W 090°36'0 0.0
2014-Apr-12 11:33N 30°03' W 090°36'0 0.0
2014-Apr-12 10:30N 30°03' W 090°36'0 0.0
2014-Apr-12 09:33N 30°03' W 090°36'0 0.0
2014-Apr-12 08:33N 30°03' W 090°36'0 0.0
2014-Apr-12 07:33N 30°03' W 090°36'0 0.0
2014-Apr-12 06:27N 30°03' W 090°36'0 0.0
2014-Apr-12 05:33N 30°03' W 090°36'0 0.0
2014-Apr-12 04:33N 30°03' W 090°36'0 0.0
2014-Apr-12 03:33N 30°03' W 090°36'0 0.0
2014-Apr-12 02:33N 30°03' W 090°36'0 0.0
2014-Apr-12 01:30N 30°03' W 090°36'0 0.0
2014-Apr-12 00:33N 30°03' W 090°36'0 0.0
2014-Apr-11 23:33N 30°03' W 090°36'0 0.0
2014-Apr-11 22:30N 30°03' W 090°36'0 0.0
2014-Apr-11 21:33N 30°03' W 090°36'0 0.0
2014-Apr-11 20:33N 30°03' W 090°36'0 0.0
2014-Apr-11 19:33N 30°03' W 090°36'0 0.1
2014-Apr-11 18:33N 30°03' W 090°36'  
2014-Apr-08 19:33N 25°28' W 080°01'1211.5
2014-Apr-08 18:33N 25°39' W 080°02'1111.2
2014-Apr-08 17:33N 25°50' W 080°01'1111.1
2014-Apr-08 16:33N 26°01' W 080°01'7 6.6
2014-Apr-08 15:27N 26°06' W 080°07'0 0.0
2014-Apr-08 14:27N 26°06' W 080°07'0 0.0
2014-Apr-08 13:30N 26°06' W 080°07'0 0.0
2014-Apr-08 12:30N 26°06' W 080°07'0 0.0
2014-Apr-08 11:30N 26°06' W 080°07'0 0.0
2014-Apr-08 10:33N 26°06' W 080°07'0 0.0
2014-Apr-08 09:33N 26°06' W 080°07'0 0.0
2014-Apr-08 08:33N 26°06' W 080°07'0 0.0
2014-Apr-08 07:33N 26°06' W 080°07'0 0.0
2014-Apr-08 06:33N 26°06' W 080°07'0 0.0
2014-Apr-08 05:33N 26°06' W 080°07'0 0.0
2014-Apr-08 04:33N 26°06' W 080°07'0 0.0
2014-Apr-08 03:27N 26°06' W 080°07'0 0.0
2014-Apr-08 02:27N 26°06' W 080°07'0 0.0
2014-Apr-08 01:27N 26°06' W 080°07'0 0.0
2014-Apr-08 00:24N 26°06' W 080°07'0 0.0
2014-Apr-07 23:27N 26°06' W 080°07'0 0.0
2014-Apr-07 22:30N 26°06' W 080°07'0 0.0
2014-Apr-07 21:30N 26°06' W 080°07'0 0.0
2014-Apr-07 20:33N 26°06' W 080°07'0 0.0
2014-Apr-07 19:33N 26°06' W 080°07'0 0.0
2014-Apr-07 17:33N 26°06' W 080°07'0 0.0
2014-Apr-07 16:21N 26°06' W 080°07'0 0.0
2014-Apr-07 15:33N 26°06' W 080°07'0 0.0
2014-Apr-07 14:33N 26°06' W 080°07'3 3.3
2014-Apr-07 13:34N 26°06' W 080°04'2 1.5
2014-Apr-07 12:30N 26°07' W 080°05'0 0.0
2014-Apr-07 11:33N 26°07' W 080°05'  

Dump ship's entire track history

sailing weather and tide predictions

Legend — WDF9316 — position and weather